Wind_Speed
26 26 26 26 27 28 26 22 21 21 22 22 23 24 23 23 23 22 20 20 19 19 19 18 18 17 17 16 16 15 15 14 13 13 13 13 12 12 12 11 11 11 10 10 10 9 8 7 7
28 28 29 29 30 30 27 24 23 22 23 25 26 26 26 25 24 23 22 22 21 21 21 20 19 19 18 18 17 17 16 16 15 15 14 14 14 13 13 12 12 12 12 11 11 10 9 9 8
29 30 31 32 32 30 28 26 26 26 27 27 28 28 27 26 26 25 23 23 23 23 22 22 21 20 20 19 19 18 18 17 17 16 16 15 15 14 14 13 13 13 12 12 11 11 10 9 9
31 32 33 34 33 31 29 28 29 29 29 29 30 30 29 28 28 26 25 25 24 24 24 23 23 22 22 21 21 20 20 19 18 18 17 16 15 15 15 14 14 14 13 13 12 12 12 11 10
33 34 35 36 34 32 31 31 31 32 32 31 31 31 31 30 30 28 28 27 26 26 25 26 25 25 24 23 22 22 21 21 20 19 19 18 17 17 16 16 16 15 15 14 14 13 12 12 12
35 36 38 37 35 34 33 34 34 34 33 33 33 33 32 32 32 31 30 29 29 28 27 27 27 27 26 25 24 24 23 23 22 21 20 20 19 18 18 17 17 17 17 17 16 14 14 13 13
36 38 39 38 37 37 36 36 36 36 36 35 35 35 34 34 34 34 33 31 31 30 29 29 29 29 28 27 26 25 24 24 23 23 22 21 21 20 20 19 18 18 18 17 17 16 15 15 14
37 39 40 39 39 38 38 38 37 37 37 37 37 36 35 35 35 35 34 34 33 32 31 31 31 31 30 29 28 27 26 26 25 24 24 23 23 22 21 20 20 19 19 18 18 17 16 16 16
37 39 40 39 39 39 39 39 39 39 39 39 38 38 37 36 36 36 35 35 35 34 34 34 33 33 32 31 30 29 28 27 27 26 25 25 24 24 23 22 21 21 20 20 19 18 17 17 17
37 39 39 39 40 40 40 41 41 41 41 41 40 39 39 38 38 38 37 36 36 36 36 36 35 35 34 33 32 31 30 29 28 28 27 26 26 25 24 24 23 22 21 21 21 20 19 18 18
36 37 37 38 40 41 41 41 42 42 42 42 41 41 41 41 41 40 40 39 38 38 38 37 37 37 36 35 34 33 32 31 30 30 29 28 27 27 26 25 25 24 24 23 23 21 20 20 19
35 35 36 37 39 40 42 42 42 43 43 43 43 43 43 42 42 42 42 41 40 40 39 39 39 38 38 37 36 35 34 33 32 31 31 30 29 28 28 27 26 26 26 25 24 23 23 21 21
34 34 36 37 38 40 42 42 43 43 43 43 43 43 43 43 43 43 43 42 42 41 41 40 40 40 39 39 38 36 35 34 34 33 32 31 30 30 30 29 28 27 27 27 26 25 25 24 23
33 33 34 36 38 39 41 42 43 43 43 43 43 43 44 44 43 43 44 44 43 42 42 42 41 41 41 40 39 38 37 36 35 35 34 33 32 31 31 30 30 29 29 28 28 27 26 26 25
31 32 33 34 37 39 40 41 42 41 42 43 43 43 44 45 44 44 44 43 43 43 42 42 42 42 42 41 41 40 39 38 37 36 35 35 35 34 33 32 32 31 30 30 29 29 29 28 27
30 32 33 33 35 37 39 40 39 39 40 42 42 43 44 46 46 46 45 44 43 43 43 42 43 43 43 43 42 42 41 40 38 38 37 36 36 35 34 34 34 33 32 31 30 30 30 30 29
30 31 31 32 33 34 37 39 39 40 40 40 41 42 44 46 47 47 46 45 44 43 43 43 43 43 44 44 43 42 42 42 41 40 39 38 37 37 36 35 34 34 33 33 32 32 32 31 30
29 29 30 31 32 33 34 35 37 39 40 40 41 43 44 45 47 47 47 46 45 44 44 44 44 44 44 44 44 43 43 43 43 42 41 40 39 38 38 37 36 35 34 34 33 33 33 32 31
28 29 30 31 31 32 33 34 35 37 39 40 41 43 44 45 46 47 47 47 46 46 45 45 46 46 45 45 45 44 44 43 43 43 42 41 40 39 39 39 38 36 35 35 34 33 33 33 33
28 29 30 30 31 32 33 34 34 35 37 38 40 43 43 44 45 47 47 47 47 47 46 46 46 46 46 45 45 44 44 44 43 43 43 42 41 41 40 39 39 38 37 37 36 35 34 33 33
25 27 28 30 31 31 32 33 34 34 36 37 39 43 44 43 44 46 47 46 46 46 46 46 46 46 45 45 45 45 45 45 44 44 44 42 41 40 39 40 39 39 39 38 38 37 37 36 34
23 24 25 28 29 30 31 32 33 34 35 36 38 40 43 44 44 45 47 46 46 46 46 46 47 46 46 45 45 46 45 45 45 44 44 43 42 42 41 41 41 40 40 39 39 39 38 37 36
20 21 23 24 26 28 29 32 32 33 34 36 38 38 41 43 43 44 46 45 45 46 46 46 47 47 47 47 47 46 46 46 46 45 45 44 44 44 44 43 43 42 41 41 41 40 39 39 38
18 19 19 21 22 26 27 29 31 32 33 35 37 38 40 42 42 43 45 45 45 46 47 47 47 48 48 48 48 48 46 46 46 46 46 45 45 44 44 44 44 44 43 43 42 41 41 41 40
16 17 17 19 21 24 23 26 27 28 30 33 35 37 39 41 42 43 45 45 46 46 47 48 48 48 49 49 49 49 47 47 47 47 47 47 46 46 45 44 44 44 44 43 43 42 42 43 42
14 16 17 18 19 22 22 24 24 24 26 28 32 35 37 39 40 42 44 45 46 47 48 48 48 48 49 49 50 50 49 49 49 48 48 48 47 47 46 45 45 44 43 43 43 43 43 44 44
15 14 16 18 19 20 22 22 22 22 23 24 28 32 33 37 39 41 42 43 45 46 48 49 48 48 49 50 50 51 51 50 49 49 49 49 48 47 47 47 47 46 45 45 44 44 44 45 45
16 15 16 17 18 19 21 21 21 21 22 23 26 30 32 34 36 38 40 42 44 45 47 48 48 49 49 49 50 51 51 50 50 49 49 49 49 48 48 48 47 47 46 46 46 45 45 45 46
15 16 18 18 19 20 21 21 20 21 21 22 23 26 29 32 34 36 38 41 43 45 46 47 48 48 49 49 50 50 51 50 50 49 49 49 49 49 48 48 48 48 48 48 47 47 46 46 46
17 17 18 19 20 21 21 21 21 22 23 23 24 25 28 32 34 35 37 39 41 42 44 45 45 46 47 50 51 50 50 51 51 50 49 49 50 50 50 50 49 49 49 48 48 48 48 47 47
Wind_Direction
257 256 254 253 252 251 251 250 247 243 241 239 237 237 237 238 238 239 238 236 234 233 233 231 229 229 229 228 227 228 230 231 232 231 230 230 231 231 229 230 231 231 232 233 235 237 240 242 243
257 256 254 253 252 252 251 249 247 246 243 240 237 237 238 238 238 237 237 237 236 235 235 234 232 231 230 230 229 229 231 232 233 235 235 234 234 234 233 232 233 234 234 234 235 238 240 242 244
259 257 255 254 253 253 253 250 247 245 243 242 239 238 238 238 237 237 236 237 237 236 235 235 233 232 231 231 231 231 232 232 233 235 237 236 236 235 236 236 236 236 236 236 236 238 240 243 247
258 256 255 254 254 253 253 250 248 246 245 243 242 239 238 238 237 237 237 237 237 236 236 235 234 233 233 233 233 233 233 233 234 235 236 236 238 238 238 237 237 237 237 238 238 240 242 246 248
259 256 255 255 255 253 252 249 248 247 246 245 243 241 240 239 238 237 236 235 236 236 235 235 235 235 234 233 233 233 234 234 234 235 236 238 240 242 241 237 238 240 240 242 243 243 246 248 250
261 258 256 256 255 253 251 249 247 246 246 245 245 243 242 240 239 238 237 236 236 235 234 235 235 235 235 235 234 234 234 234 234 235 237 239 241 242 242 240 239 241 244 246 246 244 247 249 251
262 259 258 257 255 252 251 249 247 246 245 245 244 244 243 241 240 239 238 236 237 236 236 236 236 235 235 235 234 234 235 235 235 237 238 240 242 242 241 241 243 243 246 247 246 246 248 250 251
262 260 257 255 254 252 251 249 248 246 245 245 244 244 243 242 240 239 239 237 237 236 236 236 236 236 236 235 235 235 236 236 236 238 239 241 243 243 242 242 244 246 247 248 248 249 250 251 251
263 260 257 255 253 251 250 248 247 246 245 244 243 243 242 242 241 240 239 238 238 237 236 236 236 236 236 236 236 236 237 238 238 239 240 242 243 244 245 245 246 248 248 247 248 249 250 250 252
263 260 258 256 253 250 248 247 246 245 245 244 243 242 242 241 240 240 239 239 239 238 237 237 236 236 236 237 237 238 238 239 239 240 240 241 243 244 245 247 248 248 249 249 250 251 250 251 252
266 262 258 256 254 251 248 246 245 244 244 244 243 242 241 240 240 239 239 239 239 238 238 238 237 236 236 237 238 238 239 240 240 241 241 242 243 244 245 247 248 249 249 249 249 250 250 252 253
265 262 258 255 254 252 249 246 244 244 244 243 243 242 241 240 240 240 239 239 238 238 238 237 237 236 235 236 237 238 239 240 240 241 242 242 242 244 244 246 247 248 249 249 249 249 251 252 253
264 262 258 256 254 252 249 246 245 244 243 242 242 241 240 240 239 239 239 239 238 238 237 236 236 237 236 235 236 237 238 239 240 241 241 241 242 243 244 245 247 248 248 248 249 249 250 251 252
264 262 259 256 254 251 249 246 245 244 243 242 240 240 239 238 238 239 239 238 237 237 237 236 236 236 236 236 235 236 238 239 240 240 241 241 241 242 244 244 246 247 248 249 250 249 250 251 253
263 260 258 257 255 252 249 247 246 244 242 241 239 239 238 237 236 237 237 237 237 237 236 236 236 236 237 237 236 236 237 239 240 241 241 242 242 242 243 245 245 246 247 248 250 250 250 251 254
262 261 258 256 255 253 250 248 245 244 242 240 238 237 237 236 235 235 236 236 236 236 235 236 236 236 236 237 237 237 237 238 238 239 241 242 243 243 244 245 245 245 246 247 250 250 251 253 254
262 261 259 256 255 254 251 248 244 243 242 239 236 236 236 235 234 234 235 235 235 235 235 235 236 236 236 236 237 238 238 239 240 240 242 242 242 243 245 245 245 245 245 247 249 250 252 254 255
264 262 258 255 254 254 253 250 246 243 242 239 236 234 234 235 234 233 234 234 235 234 234 233 234 236 236 236 237 238 239 239 241 241 242 243 244 244 244 244 244 245 244 245 247 249 251 252 253
266 263 257 254 255 256 254 252 248 245 243 241 237 234 233 233 234 233 233 233 234 234 234 233 234 235 236 236 237 237 239 240 241 242 243 244 244 243 244 244 244 245 245 244 246 248 250 251 252
267 264 258 256 256 257 255 252 249 245 242 241 238 233 231 231 233 232 232 232 233 233 233 233 233 234 235 237 237 237 239 240 241 242 243 244 244 245 244 244 244 244 245 245 246 247 249 251 252
269 264 260 258 255 255 255 253 249 245 241 240 238 234 231 231 232 231 231 231 232 233 233 233 234 234 235 235 236 237 239 240 241 242 243 244 243 243 243 243 244 244 245 246 246 247 248 249 251
276 267 263 259 256 254 254 253 249 246 242 240 239 235 232 231 232 232 232 232 232 233 233 233 234 234 235 236 236 237 239 241 242 243 242 243 243 243 244 244 244 245 246 246 246 247 247 249 250
282 271 267 264 259 259 256 255 253 248 243 241 238 236 232 232 232 232 231 232 232 233 233 233 234 235 236 236 238 239 240 240 241 242 243 244 244 244 244 244 245 246 247 247 246 247 248 249 250
286 279 274 269 264 262 258 257 257 253 247 242 239 237 234 232 232 232 231 232 232 233 233 233 235 236 237 237 238 238 239 240 240 241 242 243 244 245 245 244 245 247 248 247 247 249 250 250 250
290 283 278 273 267 263 260 260 260 256 251 245 241 238 237 235 235 233 231 232 233 233 234 235 236 237 238 238 239 239 239 239 241 241 242 244 244 245 246 245 245 247 248 247 248 250 251 251 251
295 288 278 271 269 266 265 265 262 259 254 249 244 241 238 237 236 235 233 234 234 235 235 236 237 238 238 239 239 239 241 242 242 242 243 244 245 245 246 246 247 247 248 249 249 249 250 251 251
295 287 280 274 272 269 266 266 264 259 257 252 247 243 240 239 238 235 234 236 235 236 236 237 239 239 240 241 242 242 241 242 243 243 243 244 244 245 246 247 248 248 250 250 250 250 250 250 251
292 291 285 280 274 271 270 268 265 257 255 255 251 247 244 241 238 236 238 238 236 236 238 239 239 240 241 241 242 242 241 242 243 243 243 244 245 245 247 248 248 248 249 249 249 250 251 250 251
290 291 287 280 276 273 273 272 266 262 260 259 254 249 246 243 238 237 240 240 239 239 239 240 241 242 242 242 242 242 243 243 243 244 244 245 245 246 247 248 249 249 250 251 250 251 251 251 251
291 292 289 281 277 272 273 276 272 265 262 259 256 250 248 245 242 242 242 241 241 241 241 242 243 243 243 243 244 245 245 244 243 244 245 245 246 246 247 247 249 249 250 250 251 251 251 251 251
Height
5815 5815 5816 5817 5818 5818 5820 5824 5826 5827 5828 5829 5830 5830 5832 5834 5837 5840 5841 5841 5843 5845 5846 5848 5849 5850 5852 5853 5855 5856 5857 5858 5860 5861 5862 5863 5864 5864 5865 5866 5867 5867 5868 5869 5869 5870 5870 5871 5871
5809 5810 5811 5811 5811 5812 5816 5819 5821 5822 5823 5824 5824 5826 5827 5829 5832 5834 5836 5837 5839 5841 5843 5845 5846 5848 5849 5851 5852 5853 5855 5856 5857 5859 5860 5861 5862 5863 5864 5864 5865 5866 5867 5867 5868 5869 5869 5870 5870
5802 5803 5804 5804 5804 5808 5812 5814 5816 5816 5817 5818 5819 5821 5823 5825 5827 5830 5832 5833 5836 5838 5839 5841 5843 5844 5846 5848 5849 5851 5852 5854 5855 5857 5858 5859 5860 5861 5862 5863 5864 5864 5865 5866 5866 5867 5868 5868 5869
5794 5795 5795 5797 5798 5802 5805 5807 5808 5809 5811 5812 5814 5816 5818 5820 5822 5825 5827 5829 5831 5833 5835 5837 5839 5841 5843 5845 5846 5848 5849 5851 5852 5854 5855 5856 5858 5859 5860 5861 5862 5862 5863 5864 5865 5865 5866 5867 5867
5786 5786 5787 5788 5791 5795 5797 5799 5800 5802 5804 5806 5808 5810 5812 5815 5817 5819 5822 5824 5826 5829 5831 5833 5835 5837 5839 5841 5843 5844 5846 5848 5850 5851 5853 5854 5855 5856 5857 5858 5859 5860 5861 5862 5863 5864 5864 5865 5866
5776 5776 5777 5779 5783 5786 5789 5790 5792 5794 5797 5799 5801 5803 5806 5809 5811 5814 5816 5819 5821 5823 5826 5828 5830 5832 5835 5837 5839 5841 5843 5844 5846 5848 5850 5851 5852 5854 5855 5856 5857 5858 5859 5860 5860 5861 5862 5863 5863
5767 5766 5768 5771 5774 5777 5780 5781 5784 5786 5788 5791 5793 5796 5799 5802 5804 5807 5810 5813 5815 5818 5820 5823 5825 5827 5830 5832 5834 5836 5838 5840 5842 5844 5846 5848 5849 5850 5852 5853 5854 5855 5856 5857 5858 5859 5860 5860 5861
5755 5756 5757 5760 5763 5767 5770 5772 5774 5777 5779 5782 5785 5788 5791 5795 5797 5800 5803 5806 5808 5811 5814 5817 5820 5822 5825 5827 5829 5832 5834 5836 5838 5840 5842 5844 5845 5847 5848 5849 5851 5852 5853 5854 5855 5856 5857 5858 5858
5744 5745 5746 5750 5753 5756 5759 5761 5765 5767 5769 5773 5776 5780 5783 5786 5789 5793 5795 5798 5801 5805 5808 5810 5813 5816 5819 5822 5824 5827 5829 5831 5834 5836 5838 5840 5841 5843 5844 5846 5847 5848 5849 5850 5851 5853 5854 5854 5855
5732 5733 5736 5740 5741 5744 5747 5751 5754 5756 5759 5763 5767 5770 5774 5778 5781 5784 5788 5791 5794 5798 5801 5804 5807 5810 5812 5816 5818 5821 5824 5826 5829 5831 5833 5835 5837 5839 5840 5842 5843 5844 5845 5847 5848 5849 5850 5851 5852
5721 5723 5726 5728 5730 5732 5735 5739 5742 5746 5749 5753 5757 5761 5764 5768 5772 5775 5779 5783 5786 5790 5793 5796 5800 5803 5806 5809 5812 5815 5818 5821 5823 5825 5827 5830 5832 5834 5836 5837 5838 5840 5841 5842 5844 5845 5846 5847 5848
5711 5713 5714 5716 5718 5720 5722 5726 5730 5734 5739 5743 5746 5750 5754 5758 5762 5766 5770 5774 5778 5781 5785 5788 5792 5795 5798 5802 5805 5808 5812 5814 5817 5819 5822 5824 5826 5828 5830 5832 5833 5835 5836 5838 5839 5841 5842 5843 5844
5700 5702 5702 5704 5706 5708 5710 5714 5718 5722 5727 5731 5735 5739 5743 5748 5752 5756 5760 5765 5769 5772 5776 5780 5783 5787 5791 5794 5798 5801 5804 5807 5810 5813 5815 5818 5820 5822 5824 5826 5828 5829 5831 5833 5834 5836 5837 5838 5839
5690 5691 5692 5693 5694 5696 5699 5702 5706 5711 5715 5720 5724 5728 5733 5737 5742 5746 5750 5755 5759 5763 5767 5771 5775 5779 5782 5786 5790 5794 5797 5800 5803 5806 5808 5811 5813 5816 5818 5820 5822 5823 5825 5827 5829 5830 5832 5833 5834
5679 5680 5682 5682 5683 5685 5687 5690 5694 5700 5703 5708 5713 5717 5722 5726 5731 5736 5740 5745 5750 5754 5758 5762 5766 5770 5774 5778 5782 5785 5789 5792 5795 5798 5801 5804 5806 5808 5811 5813 5815 5817 5819 5821 5822 5824 5826 5827 5828
5669 5669 5671 5673 5673 5674 5677 5680 5685 5688 5692 5697 5702 5706 5711 5715 5720 5725 5730 5735 5740 5744 5749 5753 5757 5761 5765 5769 5773 5777 5780 5784 5787 5790 5793 5796 5799 5801 5804 5806 5808 5810 5812 5814 5816 5818 5820 5821 5822
5658 5659 5661 5663 5664 5664 5666 5670 5674 5677 5681 5685 5690 5695 5699 5704 5709 5714 5719 5724 5729 5734 5739 5743 5747 5751 5755 5759 5763 5767 5771 5774 5777 5781 5784 5788 5790 5793 5796 5798 5801 5803 5805 5807 5809 5811 5813 5814 5816
5650 5651 5652 5653 5654 5655 5656 5659 5663 5666 5669 5674 5679 5684 5688 5693 5697 5703 5708 5714 5719 5724 5729 5734 5738 5742 5746 5750 5754 5758 5762 5765 5768 5772 5775 5779 5782 5785 5787 5790 5793 5795 5797 5800 5802 5804 5806 5808 5809
5642 5642 5643 5644 5645 5646 5647 5649 5652 5655 5659 5663 5668 5672 5677 5682 5687 5692 5697 5703 5709 5714 5719 5724 5728 5732 5736 5740 5744 5748 5752 5755 5758 5762 5765 5769 5772 5775 5778 5781 5784 5787 5789 5792 5794 5796 5798 5800 5802
5632 5633 5633 5635 5636 5637 5638 5640 5642 5645 5648 5653 5657 5662 5666 5672 5676 5681 5687 5693 5698 5704 5709 5713 5718 5722 5726 5730 5735 5739 5742 5746 5749 5752 5756 5759 5762 5765 5768 5771 5775 5778 5781 5783 5786 5788 5790 5792 5794
5624 5625 5625 5626 5627 5628 5629 5631 5633 5636 5639 5642 5646 5651 5656 5661 5666 5671 5677 5682 5688 5693 5698 5703 5707 5712 5716 5720 5724 5728 5732 5736 5739 5743 5746 5749 5753 5756 5759 5762 5765 5768 5771 5774 5777 5779 5782 5784 5786
5618 5618 5618 5618 5619 5619 5621 5621 5624 5627 5630 5633 5636 5640 5645 5651 5656 5661 5666 5672 5678 5683 5688 5693 5697 5702 5706 5710 5714 5718 5722 5726 5729 5733 5736 5739 5743 5746 5749 5753 5756 5759 5762 5765 5768 5770 5773 5775 5777
5612 5611 5611 5611 5611 5612 5612 5612 5616 5618 5621 5624 5627 5631 5635 5641 5646 5651 5657 5662 5668 5673 5678 5683 5687 5691 5695 5700 5703 5707 5712 5715 5719 5722 5726 5730 5733 5736 5740 5743 5746 5749 5752 5755 5758 5761 5763 5766 5768
5607 5606 5605 5605 5605 5604 5605 5605 5607 5609 5612 5615 5618 5622 5626 5631 5636 5641 5647 5652 5658 5662 5667 5672 5677 5681 5685 5689 5693 5697 5701 5705 5708 5712 5716 5719 5723 5726 5729 5732 5736 5739 5742 5745 5748 5751 5753 5756 5759
5603 5602 5600 5599 5598 5597 5599 5598 5600 5602 5604 5607 5610 5613 5617 5621 5626 5631 5637 5642 5647 5652 5656 5661 5666 5670 5674 5678 5681 5686 5690 5694 5698 5701 5705 5709 5713 5716 5719 5722 5725 5729 5731 5734 5738 5741 5743 5746 5748
5598 5597 5595 5594 5593 5593 5593 5592 5595 5595 5597 5599 5601 5604 5608 5611 5616 5621 5626 5632 5636 5641 5646 5650 5655 5659 5663 5667 5670 5675 5679 5683 5687 5690 5694 5698 5702 5705 5708 5711 5714 5717 5721 5724 5727 5730 5733 5735 5738
5593 5591 5591 5590 5588 5587 5587 5587 5588 5589 5590 5592 5594 5596 5599 5602 5606 5611 5616 5621 5625 5630 5635 5639 5643 5647 5651 5655 5659 5662 5667 5671 5675 5679 5683 5686 5690 5693 5697 5700 5703 5706 5710 5713 5716 5719 5722 5725 5727
5589 5587 5586 5584 5583 5581 5581 5581 5582 5583 5584 5585 5587 5589 5591 5594 5598 5603 5607 5610 5615 5619 5624 5628 5632 5636 5639 5643 5647 5650 5655 5659 5662 5666 5670 5674 5678 5681 5685 5688 5692 5695 5698 5701 5704 5707 5710 5713 5716
5585 5584 5581 5579 5578 5577 5576 5579 5577 5578 5579 5580 5581 5582 5585 5587 5591 5594 5597 5601 5604 5608 5612 5616 5620 5623 5627 5631 5634 5638 5642 5646 5649 5654 5658 5661 5665 5669 5673 5676 5680 5683 5686 5689 5693 5696 5699 5702 5704
5581 5579 5577 5576 5574 5572 5572 5575 5572 5573 5574 5574 5575 5576 5578 5580 5582 5585 5588 5591 5594 5598 5601 5605 5608 5611 5615 5619 5622 5625 5629 5633 5637 5641 5645 5648 5652 5656 5660 5663 5667 5670 5674 5677 5681 5684 5686 5689 5692